BHI2017 SABE-SAZB

Flight info

Callsign BHI2017
Flight time N/A
Altitude 36000
Route PTA8 GBE DCT XODIK UW18 MOXAN MOXAN1U
Aircraft B738/M-SDE2E3FGHIRWXY/LB1

Departure

Time 2026-05-03 23:04
Airport Aeroparque Jorge Newbery (SABE)

Arrival

Time N/A
Airport Comandante Espora Airport (SAZB)
Time Latitude Longitude Altitude Speed Heading
2026-05-03 22:32 -34.55724 -58.41403 26 ft 0 kts 34°
2026-05-03 22:55 -34.55731 -58.41410 26 ft 4 kts 24°
2026-05-03 22:55 -34.55755 -58.41411 29 ft 4 kts 338°
2026-05-03 22:55 -34.55776 -58.41405 29 ft 1 kts 14°
2026-05-03 22:59 -34.55774 -58.41383 28 ft 4 kts 116°
2026-05-03 22:59 -34.55790 -58.41356 27 ft 4 kts 126°
2026-05-03 22:59 -34.55805 -58.41330 26 ft 4 kts 126°
2026-05-03 22:59 -34.55825 -58.41300 26 ft 5 kts 135°
2026-05-03 23:00 -34.55864 -58.41297 30 ft 7 kts 193°
2026-05-03 23:00 -34.55898 -58.41300 29 ft 0 kts 174°
2026-05-03 23:00 -34.55917 -58.41289 27 ft 8 kts 145°
2026-05-03 23:00 -34.55971 -58.41211 27 ft 15 kts 128°
2026-05-03 23:01 -34.56046 -58.41093 28 ft 20 kts 126°
2026-05-03 23:01 -34.56129 -58.40939 29 ft 24 kts 111°
2026-05-03 23:01 -34.56204 -58.40755 29 ft 23 kts 125°
2026-05-03 23:01 -34.56295 -58.40596 29 ft 23 kts 124°
2026-05-03 23:02 -34.56387 -58.40470 28 ft 16 kts 139°
2026-05-03 23:02 -34.56393 -58.40463 29 ft 0 kts 139°
2026-05-03 23:03 -34.56428 -58.40427 28 ft 14 kts 139°
2026-05-03 23:03 -34.56538 -58.40373 29 ft 20 kts 205°
2026-05-03 23:03 -34.56537 -58.40470 26 ft 12 kts 302°
2026-05-03 23:04 -34.56466 -58.40601 26 ft 44 kts 303°
2026-05-03 23:04 -34.56129 -58.41210 27 ft 127 kts 304°
2026-05-03 23:04 -34.55542 -58.42266 340 ft 167 kts 305°
2026-05-03 23:04 -34.54864 -58.43484 902 ft 189 kts 301°
2026-05-03 23:05 -34.53755 -58.44649 1280 ft 231 kts 338°
2026-05-03 23:05 -34.52099 -58.44651 1848 ft 251 kts 21°
2026-05-03 23:05 -34.50636 -58.43551 2590 ft 254 kts 41°
2026-05-03 23:05 -34.49634 -58.41790 3216 ft 260 kts 77°
2026-05-03 23:06 -34.49670 -58.39640 4060 ft 257 kts 110°
2026-05-03 23:06 -34.50268 -58.37591 5035 ft 258 kts 113°
2026-05-03 23:06 -34.50872 -58.35510 5830 ft 266 kts 112°
2026-05-03 23:06 -34.51566 -58.33436 6616 ft 267 kts 129°
2026-05-03 23:07 -34.52975 -58.32054 7405 ft 261 kts 163°
2026-05-03 23:07 -34.54763 -58.31688 8244 ft 260 kts 182°
2026-05-03 23:07 -34.56547 -58.31804 9062 ft 262 kts 188°
2026-05-03 23:07 -34.58405 -58.32040 9937 ft 265 kts 189°
2026-05-03 23:08 -34.60244 -58.32295 10729 ft 267 kts 190°
2026-05-03 23:08 -34.62094 -58.32548 11541 ft 268 kts 190°
2026-05-03 23:08 -34.63926 -58.32794 12227 ft 275 kts 191°
2026-05-03 23:08 -34.65915 -58.33058 12598 ft 293 kts 190°
2026-05-03 23:09 -34.67962 -58.33322 13288 ft 299 kts 191°
2026-05-03 23:09 -34.70013 -58.33579 14072 ft 301 kts 191°
2026-05-03 23:09 -34.72133 -58.33840 14791 ft 303 kts 191°
2026-05-03 23:09 -34.74244 -58.34099 15463 ft 307 kts 192°
2026-05-03 23:10 -34.76376 -58.34360 16135 ft 310 kts 192°
2026-05-03 23:10 -34.78547 -58.34624 16790 ft 314 kts 192°
2026-05-03 23:10 -34.80692 -58.34885 17415 ft 317 kts 192°
2026-05-03 23:10 -34.82913 -58.35155 18009 ft 321 kts 193°
2026-05-03 23:11 -34.85183 -58.35431 18567 ft 324 kts 193°
2026-05-03 23:11 -34.87404 -58.35701 19087 ft 326 kts 193°
2026-05-03 23:11 -34.89666 -58.35975 19633 ft 328 kts 193°
2026-05-03 23:11 -34.91944 -58.36251 20158 ft 330 kts 193°
2026-05-03 23:12 -34.94232 -58.36529 20681 ft 332 kts 193°
2026-05-03 23:12 -34.96547 -58.36811 21181 ft 335 kts 194°
2026-05-03 23:12 -34.98870 -58.37095 21687 ft 337 kts 194°
2026-05-03 23:12 -35.01178 -58.37376 22191 ft 339 kts 194°
2026-05-03 23:13 -35.03567 -58.37667 22690 ft 342 kts 194°
2026-05-03 23:13 -35.05947 -58.37958 23152 ft 345 kts 194°
2026-05-03 23:13 -35.08345 -58.38252 23637 ft 347 kts 194°
2026-05-03 23:13 -35.10754 -58.38546 24039 ft 349 kts 194°
2026-05-03 23:14 -35.13145 -58.38837 24457 ft 350 kts 194°
2026-05-03 23:14 -35.15587 -58.39135 24862 ft 352 kts 194°
2026-05-03 23:14 -35.18033 -58.39435 25268 ft 353 kts 194°
2026-05-03 23:14 -35.20498 -58.39736 25670 ft 355 kts 194°
2026-05-03 23:15 -35.22964 -58.40038 26073 ft 356 kts 194°
2026-05-03 23:15 -35.25398 -58.40336 26511 ft 355 kts 194°
2026-05-03 23:15 -35.27844 -58.40633 27086 ft 351 kts 194°
2026-05-03 23:15 -35.30240 -58.40924 27636 ft 348 kts 195°
2026-05-03 23:16 -35.32665 -58.41222 28070 ft 348 kts 195°
2026-05-03 23:16 -35.35091 -58.41523 28357 ft 352 kts 195°
2026-05-03 23:16 -35.37535 -58.41828 28676 ft 354 kts 195°
2026-05-03 23:16 -35.39987 -58.42131 29037 ft 355 kts 195°
2026-05-03 23:17 -35.42452 -58.42435 29396 ft 356 kts 195°
2026-05-03 23:17 -35.44901 -58.42737 29699 ft 359 kts 195°
2026-05-03 23:17 -35.47426 -58.43049 30028 ft 361 kts 195°
2026-05-03 23:17 -35.49932 -58.43358 30317 ft 362 kts 195°
2026-05-03 23:18 -35.52439 -58.43668 30601 ft 363 kts 195°
2026-05-03 23:18 -35.54965 -58.43980 30845 ft 365 kts 195°
2026-05-03 23:18 -35.57501 -58.44294 31099 ft 367 kts 195°
2026-05-03 23:18 -35.60046 -58.44608 31368 ft 368 kts 195°
2026-05-03 23:19 -35.62546 -58.44918 31626 ft 369 kts 195°
2026-05-03 23:19 -35.65126 -58.45237 31859 ft 371 kts 195°
2026-05-03 23:19 -35.67702 -58.45557 32090 ft 373 kts 195°
2026-05-03 23:19 -35.70291 -58.45878 32344 ft 374 kts 195°
2026-05-03 23:20 -35.71990 -58.46183 32498 ft 368 kts 201°
2026-05-03 23:20 -35.75179 -58.47477 32783 ft 362 kts 210°
2026-05-03 23:20 -35.76712 -58.48345 32928 ft 360 kts 213°
2026-05-03 23:20 -35.79512 -58.50539 33205 ft 356 kts 221°
2026-05-03 23:21 -35.81448 -58.52364 33421 ft 356 kts 222°
2026-05-03 23:21 -35.82771 -58.53646 33548 ft 358 kts 223°
2026-05-03 23:21 -35.84731 -58.55558 33729 ft 359 kts 223°
2026-05-03 23:21 -35.86689 -58.57467 33958 ft 361 kts 223°
2026-05-03 23:22 -35.90652 -58.61303 34319 ft 363 kts 222°
2026-05-03 23:22 -35.92616 -58.63194 34482 ft 364 kts 222°
2026-05-03 23:22 -35.94642 -58.65141 34677 ft 365 kts 222°
2026-05-03 23:23 -35.96659 -58.67078 34862 ft 366 kts 222°
2026-05-03 23:23 -35.99300 -58.69613 35062 ft 367 kts 222°
2026-05-03 23:23 -36.00674 -58.70932 35169 ft 368 kts 222°
2026-05-03 23:23 -36.02714 -58.72891 35346 ft 369 kts 222°
2026-05-03 23:24 -36.04716 -58.74815 35521 ft 369 kts 222°
2026-05-03 23:24 -36.06752 -58.76772 35669 ft 370 kts 222°
2026-05-03 23:24 -36.08785 -58.78729 35805 ft 372 kts 222°
2026-05-03 23:24 -36.10826 -58.80694 35965 ft 372 kts 222°
2026-05-03 23:25 -36.14927 -58.84647 36012 ft 374 kts 222°
2026-05-03 23:25 -36.19033 -58.88609 36018 ft 373 kts 222°
2026-05-03 23:26 -36.23125 -58.92562 36011 ft 373 kts 222°
2026-05-03 23:26 -36.27213 -58.96518 36019 ft 372 kts 223°
2026-05-03 23:27 -36.31290 -59.00470 36012 ft 372 kts 223°
2026-05-03 23:27 -36.35329 -59.04389 36019 ft 371 kts 223°
2026-05-03 23:28 -36.39410 -59.08355 36008 ft 372 kts 223°
2026-05-03 23:28 -36.43488 -59.12324 36010 ft 372 kts 223°
2026-05-03 23:29 -36.47570 -59.16302 36002 ft 373 kts 223°
2026-05-03 23:29 -36.51621 -59.20255 36000 ft 373 kts 223°
2026-05-03 23:30 -36.55699 -59.24239 35998 ft 374 kts 223°
2026-05-03 23:30 -36.59815 -59.28267 36009 ft 374 kts 223°
2026-05-03 23:31 -36.63911 -59.32280 35995 ft 375 kts 223°
2026-05-03 23:31 -36.67976 -59.36269 35997 ft 375 kts 223°
2026-05-03 23:32 -36.72075 -59.40296 35997 ft 375 kts 223°
2026-05-03 23:32 -36.76193 -59.44349 35996 ft 382 kts 225°
2026-05-03 23:33 -36.80410 -59.48511 36007 ft 390 kts 225°
2026-05-03 23:33 -36.84714 -59.52759 36009 ft 393 kts 225°
2026-05-03 23:34 -36.89002 -59.56993 35991 ft 395 kts 225°
2026-05-03 23:34 -36.93331 -59.61275 35987 ft 395 kts 225°
2026-05-03 23:35 -36.97609 -59.65513 36004 ft 394 kts 225°
2026-05-03 23:35 -37.01894 -59.69764 35988 ft 392 kts 225°
2026-05-03 23:36 -37.06143 -59.73987 35993 ft 391 kts 225°
2026-05-03 23:36 -37.10385 -59.78211 35978 ft 389 kts 225°
2026-05-03 23:37 -37.14634 -59.82447 35987 ft 387 kts 225°
2026-05-03 23:37 -37.18847 -59.86655 35983 ft 386 kts 225°
2026-05-03 23:38 -37.23050 -59.90858 35978 ft 386 kts 226°
2026-05-03 23:38 -37.27231 -59.95046 35979 ft 385 kts 226°
2026-05-03 23:39 -37.31436 -59.99265 35982 ft 386 kts 226°
2026-05-03 23:39 -37.35637 -60.03485 35975 ft 387 kts 226°
2026-05-03 23:40 -37.39814 -60.07687 35977 ft 388 kts 226°
2026-05-03 23:40 -37.44027 -60.11931 35976 ft 388 kts 226°
2026-05-03 23:41 -37.48230 -60.16172 35966 ft 389 kts 226°
2026-05-03 23:41 -37.52450 -60.20435 35965 ft 390 kts 226°
2026-05-03 23:42 -37.56715 -60.24751 35960 ft 391 kts 226°
2026-05-03 23:42 -37.60972 -60.29068 35530 ft 395 kts 226°
2026-05-03 23:43 -37.63108 -60.31234 35150 ft 391 kts 226°
2026-05-03 23:43 -37.65219 -60.33373 34757 ft 387 kts 226°
2026-05-03 23:43 -37.67303 -60.35485 34367 ft 382 kts 226°
2026-05-03 23:43 -37.69368 -60.37582 33994 ft 380 kts 227°
2026-05-03 23:44 -37.71382 -60.39632 33576 ft 378 kts 227°
2026-05-03 23:44 -37.73440 -60.41729 33154 ft 376 kts 226°
2026-05-03 23:44 -37.75476 -60.43805 32737 ft 375 kts 226°
2026-05-03 23:44 -37.77488 -60.45857 32326 ft 374 kts 226°
2026-05-03 23:45 -37.79521 -60.47934 31917 ft 372 kts 226°
2026-05-03 23:45 -37.81526 -60.49982 31517 ft 371 kts 226°
2026-05-03 23:45 -37.83541 -60.52042 31127 ft 370 kts 226°
2026-05-03 23:45 -37.85529 -60.54076 30741 ft 369 kts 226°
2026-05-03 23:46 -37.87539 -60.56133 30352 ft 368 kts 226°
2026-05-03 23:46 -37.89508 -60.58150 29972 ft 367 kts 226°
2026-05-03 23:46 -37.91502 -60.60194 29515 ft 365 kts 226°
2026-05-03 23:46 -37.93473 -60.62215 29088 ft 363 kts 226°
2026-05-03 23:47 -37.95427 -60.64220 28652 ft 361 kts 226°
2026-05-03 23:47 -37.97370 -60.66214 28237 ft 357 kts 226°
2026-05-03 23:47 -37.99290 -60.68186 27813 ft 353 kts 226°
2026-05-03 23:47 -38.01163 -60.70111 27407 ft 349 kts 226°
2026-05-03 23:48 -38.03044 -60.72047 26996 ft 347 kts 226°
2026-05-03 23:48 -38.04906 -60.73965 26595 ft 344 kts 226°
2026-05-03 23:48 -38.06736 -60.75852 26203 ft 341 kts 226°
2026-05-03 23:48 -38.08587 -60.77762 25810 ft 338 kts 226°
2026-05-03 23:49 -38.10405 -60.79639 25428 ft 336 kts 226°
2026-05-03 23:49 -38.12191 -60.81484 25049 ft 333 kts 226°
2026-05-03 23:49 -38.13994 -60.83348 24677 ft 331 kts 226°
2026-05-03 23:49 -38.15779 -60.85195 24303 ft 329 kts 226°
2026-05-03 23:50 -38.17550 -60.87027 23935 ft 327 kts 226°
2026-05-03 23:50 -38.18714 -60.88233 23705 ft 325 kts 227°
2026-05-03 23:50 -38.21050 -60.90654 23161 ft 323 kts 226°
2026-05-03 23:50 -38.22784 -60.92452 22731 ft 321 kts 227°
2026-05-03 23:51 -38.24513 -60.94246 22306 ft 319 kts 227°
2026-05-03 23:51 -38.26214 -60.96012 21901 ft 318 kts 227°
2026-05-03 23:51 -38.27941 -60.97807 21483 ft 316 kts 227°
2026-05-03 23:51 -38.29622 -60.99555 21082 ft 315 kts 227°
2026-05-03 23:52 -38.31310 -61.01312 20680 ft 313 kts 227°
2026-05-03 23:52 -38.32982 -61.03052 20281 ft 312 kts 227°
2026-05-03 23:52 -38.34673 -61.04813 19896 ft 310 kts 227°
2026-05-03 23:52 -38.36334 -61.06544 19512 ft 309 kts 227°
2026-05-03 23:53 -38.37991 -61.08302 19132 ft 307 kts 228°
2026-05-03 23:53 -38.39581 -61.10109 18754 ft 305 kts 229°
2026-05-03 23:53 -38.41131 -61.11911 18393 ft 304 kts 229°
2026-05-03 23:53 -38.42690 -61.13731 17986 ft 303 kts 229°
2026-05-03 23:54 -38.44246 -61.15543 17559 ft 302 kts 229°
2026-05-03 23:54 -38.45813 -61.17363 17137 ft 301 kts 229°
2026-05-03 23:54 -38.47361 -61.19158 16723 ft 300 kts 229°